Location: Burgberg
(50.1428°N, 11.0671°E)
Time: 10:49:20
(UTC+00:00)

Cosmos 1408 Rocket - Pass Details

Date: 26 January 2020
Orbit: 600 x 632 km, 82.6° (Epoch: 16 February)

Event Time Altitude Azimuth Distance (km) Brightness Sun altitude
Rises 06:17:04 0° 353° (N) 2,869 6.7 -6.8°
Reaches altitude 10° 06:19:20 10° 357° (N) 1,958 5.9 -6.5°
Maximum altitude 06:23:35 57° 77° (ENE) 713 4.2 -5.9°
Drops below altitude 10° 06:27:49 10° 156° (SSE) 1,939 6.9 -5.3°
Sets 06:30:03 0° 161° (SSE) 2,838 7.7 -4.9°
